www.pogodaiklimat.ru
ПОГОДА в Авроре
Время
и дата
13:53 26.05
14:53 26.05
15:53 26.05
16:53 26.05
17:53 26.05
18:53 26.05
19:53 26.05
20:53 26.05
21:53 26.05
22:53 26.05
23:53 26.05
00:53 27.05
01:53 27.05
02:53 27.05
03:53 27.05
04:53 27.05
05:53 27.05
06:53 27.05
07:53 27.05
08:53 27.05
09:53 27.05
10:53 27.05
11:53 27.05
12:53 27.05
13:53 27.05
14:53 27.05
15:53 27.05
16:53 27.05
17:53 27.05
18:53 27.05
19:53 27.05
20:53 27.05
21:53 27.05
22:53 27.05
23:53 27.05
00:53 28.05
01:53 28.05
02:17 28.05
02:53 28.05
03:53 28.05
04:08 28.05
04:19 28.05
04:27 28.05
04:53 28.05
05:25 28.05
05:53 28.05
06:53 28.05
07:53 28.05
Ветер
(напр.,м/с)
Видим. Явления Облачность Т
(С)
Тd
(С)
f
(%)
Тe
(С)
Тes
(С)
Комфортность P
(гПа)
Po
(гПа)
Тmin
(С)
Tmax
(С)
R
(мм)
R24
(мм)
S
(см)
СЗ 2 16 км ясно +19.4 +7.2 45 +21 +39 комфорт 1020.0 1013.1
нст 2 16 км ясно +20.6 +7.8 44 +22 +38 комфорт 1019.5 1012.4
СЗ 2 16 км ясно +21.1 +8.3 44 +22 +35 комфорт 1019.2 1012.1 +14.4 +21.1
ЮЗ 2 16 км ясно +20.6 +8.9 47 +23 +31 комфорт 1018.9 1011.7
нст 2 16 км ясно +20.6 +8.9 47 +23 +27 комфорт 1018.7 1011.7
З 2 16 км ясно +20.0 +8.9 49 +22 +24 комфорт 1018.8 1011.7
СЗ 3 16 км ясно +17.2 +9.4 60 +17 +17 1019.3 1012.4
С 2 16 км ясно +15.6 +9.4 67 +16 +16 1020.1 1013.1
штиль 0 16 км ясно +13.3 +9.4 77 +13 +13 1020.5 1013.4 +13.3 +21.7
штиль 0 16 км ясно +12.2 +8.9 80 +12 +12 1020.8 1013.8
штиль 0 16 км ясно +10.6 +8.3 86 +10 +10 1020.8 1013.8
штиль 0 16 км ясно +10.0 +8.3 89 +9 +9 1020.9 1013.8
штиль 0 16 км ясно +10.0 +7.8 86 +9 +9 1021.0 1014.1
штиль 0 16 км ясно +9.4 +7.8 90 +9 +9 1021.1 1014.1
штиль 0 16 км ясно +8.9 +7.2 89 +8 +8 1021.0 1014.1 +8.3 +13.3
штиль 0 16 км ясно +8.3 +7.2 93 +7 +7 1021.3 1014.1
штиль 0 16 км ясно +10.0 +7.8 86 +9 +9 1021.6 1014.4
нст 2 16 км ясно +11.7 +8.3 80 +11 +12 1021.8 1014.8
штиль 0 16 км ясно +12.8 +8.3 74 +12 +17 1022.0 1015.1
штиль 0 16 км 8/8 540 м +14.4 +8.9 70 +14 +16 1021.9 1014.8
Ю 2 16 км 8/8 660 м +16.1 +9.4 64 +16 +18 1021.7 1014.8 +8.3 +16.1
Ю 3 16 км 5/5 750 м +17.8 +10.0 60 +18 +24 1021.2 1014.1
нст 2 16 км ясно +18.9 +10.6 59 +20 +38 опасность
простуды
1020.4 1013.4
нст 2 16 км ясно +20.0 +10.0 53 +22 +41 комфорт 1019.8 1012.7
СВ 2 16 км ясно +21.7 +10.6 49 +23 +42 комфорт 1019.2 1012.1
штиль 0 16 км ясно +22.2 +10.0 46 +24 +45 комфорт 1018.6 1011.4
С 2 16 км ясно +23.3 +10.0 43 +25 +38 комфорт 1017.9 1010.7 +15.6 +23.3
нст 2 16 км ясно +23.3 +10.6 45 +25 +34 комфорт 1017.3 1010.4
С 2 16 км ясно +23.3 +10.6 45 +25 +30 комфорт 1017.1 1010.1
С 2 16 км ясно +20.6 +10.6 53 +23 +25 комфорт 1017.3 1010.1
штиль 0 16 км ясно +19.4 +10.0 55 +20 +21 1017.3 1010.1
ЮЗ 3 16 км ясно +17.2 +11.1 67 +17 +17 1017.8 1010.7
штиль 0 16 км ясно +15.0 +10.6 75 +15 +15 1017.9 1010.7 +15.0 +23.9
Ю 2 16 км ясно +13.9 +10.0 77 +13 +13 1018.0 1011.1
штиль 0 16 км ясно +12.2 +9.4 83 +12 +12 1018.0 1011.1
Ю 3 16 км ясно +11.7 +9.4 86 +10 +10 1018.1 1011.1
Ю 2 16 км ясно +11.1 +8.3 83 +10 +10 1018.4 1011.4
Ю 3 16 км 8/8 840 м +11.1 +8.9 86 +9 +9 1011.4
Ю 2 16 км 10/10 870 м +11.1 +8.3 83 +10 +10 1018.8 1011.7
Ю 2 16 км 10/10 900 м +11.1 +8.3 83 +10 +10 1019.3 1012.1 +11.1 +15.0
Ю 2 16 км 10/10 870 м +11.1 +8.3 83 +10 +10 1012.4
Ю 2 16 км 10/10 900 м +11.7 +8.3 80 +11 +11 1012.1
Ю 2 16 км 10/10 780 м +11.7 +8.3 80 +11 +11 1012.1
Ю 2 16 км 10/10 780 м +11.7 +7.8 77 +11 +11 1019.5 1012.4
Ю 3 16 км 10/10 810 м +11.7 +7.8 77 +10 +10 1012.4
Ю 3 16 км 8/8 1500 м +11.7 +7.8 77 +10 +10 1019.8 1012.7
Ю 3 16 км 8/8 1470 м +12.2 +8.3 77 +11 +11 1020.3 1013.4
Ю 4 16 км 8/8 570 m
[Ac]
+13.3 +8.3 72 +12 +12 1020.4 1013.4
Местоположение метеостанции Aurora State Airport: широта 45.2489 долгота -122.7656 высота над уровнем моря 59 м.
В архиве по умолчанию представлена погода в Авроре за последние 1-2 суток. Обновление информации о фактической погоде в базе происходит ежечасно! Архивные данные за месяц целиком и за предыдущие месяцы Вы можете получить, выбрав интересующий диапазон дат из раскрывающегося списка и нажав кнопку "Ввод!".
Внимание! Архив погоды МЕТАР в базе сайта по станциям, не включенным в климатический монитор, хранится не более 60 дней. Нет смысла пытаться выбрать более раннюю дату.
*Определитесь, кто Вы:
Внимание! Время в таблицах - местное (без учета летнего времени). Для получения всемирного времени необходимо вычесть поправку, которая равна -8 ч.
Смотрите также архив погоды в соседних городах и на ближайших метеорологических станциях:
Партнеры нашего сайта:      
Пояснения к столбцам:
  • Ветер - указаны скорость ветра в м/с - средняя за 10 мин, порывы в срок и между сроками (в фигурных скобках) и направление, откуда дует ветер: С - северный,
  • СВ - северо-восточный, В - восточный, ЮВ - юго-восточный, Ю - южный, ЮЗ - юго-западный, З - западный, СЗ - северо-западный.
  • Видимость - горизонтальная дальность видимости в метрах или километрах. При видимости от 1 до 10 км при отсутствии осадков обычно наблюдается дымка, при ухудшении видимости до 1 км и менее - туман. В сухую погоду видимость может ухудшаться дымом, пылью или мглою.
  • Явления - указаны атмосферные явления, наблюдавшиеся в срок или в последний час перед сроком; фигурными скобками обозначены явления, наблюдавшиеся между сроками (за 1-3 часа до срока); квадратными скобками обозначены град или гололедные отложения с указанием их диаметра в мм.
  • Облачность - указаны через наклонную черту общая и нижняя облачность в баллах и высота нижней границы облаков в метрах; квадратными скобками обозначены формы облаков: Ci - перистые, Cs - перисто-слоистые, Cc - перисто-кучевые, Ac - высококучевые, As - высокослоистые, Sc - слоисто-кучевые, Ns - слоисто-дождевые, Cu - кучевые, Cb - кучево-дождевые. Подробнее классификацию облаков см. в Атласе облаков (PDF).
  • T - Температура воздуха - температура, измеренная на высоте 2 м над землей.
  • Td - Температура точки росы - температура, при понижении до которой содержащийся в воздухе водяной пар достигнет насыщения.
  • f - Относительная влажность воздуха - влажноcть воздуха, измеренная на высоте 2 м над землей.
  • Te - Эффективная температура - температура, которую ощущает одетый по сезону человек в тени. Характеристика душности погоды. При расчете учитывается влияние влажности воздуха и скорости ветра на теплоощущения человека.
  • Tes - Эффективная температура на солнце - температура, которую ощущает человек, с поправкой на солнечный нагрев. Характеристика знойности погоды. Зависит от высоты солнца над горизонтом, облачности и скорости ветра. Ночью, в пасмурную погоду, а также при ветре 12 м/с и более поправка равна нулю.
  • P - Атмосферное давление - приведенное к уровню моря атмосферное давление.
  • Po - Атмосферное давление - измеренное на уровне метеостанции атмосферное давление.
  • Tmin - Минимальная температура - минимум температуры воздуха на высоте 2 м над землей.
  • Tmax - Максимальная температура - максимум температуры воздуха на высоте 2 м над землей.
  • R - Количество осадков - Количество выпавших осадков за период времени, мм. При наведении курсора мыши на число - период времени, за который выпало указанное количество осадков.
  • R24 - Количество осадков - Количество выпавших осадков за 24 часа, мм.
  • S - Снежный покров - Высота снежного покрова, см. При наведении курсора мыши на число - состояние снежного покрова и степень покрытия местности в баллах.